| time (UTC) | temp F | wind direction | speed MPH | gust MPH | rain 1hr in | rain 24hr in | rain mn in | humidity % | barometer mb |
| 20260901234607 | 82 | 0 | 1.0 | 7.0 | 0.00 | 0.00 | 0.00 | 91 | 1015.6 |
| 20260901233058 | 82 | 0 | 0.0 | 4.0 | 0.00 | 0.00 | 0.00 | 90 | 1015.6 |
| 20260901231600 | 83 | 0 | 0.0 | 7.0 | 0.00 | 0.00 | 0.00 | 89 | 1015.5 |
| 20260901230103 | 83 | 86 | 0.0 | 4.0 | 0.00 | 0.00 | 0.00 | 88 | 1015.4 |
| 20260901224602 | 84 | 0 | 2.0 | 9.0 | 0.00 | 0.00 | 0.00 | 87 | 1015.2 |
| 20260901223103 | 85 | 26 | 2.0 | 9.0 | 0.00 | 0.00 | 0.00 | 85 | 1015.4 |
| 20260901221620 | 85 | 5 | 2.0 | 8.0 | 0.00 | 0.00 | 0.00 | 84 | 1015.3 |
| 20260901220127 | 85 | 109 | 2.0 | 9.0 | 0.00 | 0.00 | 0.00 | 82 | 1015.4 |
| 20260901214600 | 85 | 85 | 2.0 | 4.0 | 0.00 | 0.00 | 0.00 | 81 | 1015.5 |
| 20260901213117 | 85 | 42 | 2.0 | 6.0 | 0.00 | 0.00 | 0.00 | 80 | 1015.3 |
| 20260901211600 | 86 | 51 | 1.0 | 7.0 | 0.00 | 0.00 | 0.00 | 81 | 1015.4 |
| 20260901210105 | 85 | 60 | 2.0 | 9.0 | 0.00 | 0.00 | 0.00 | 80 | 1015.5 |
| 20260901204558 | 86 | 30 | 1.0 | 6.0 | 0.00 | 0.00 | 0.00 | 80 | 1015.4 |
| 20260901203101 | 85 | 165 | 0.0 | 7.0 | 0.00 | 0.00 | 0.00 | 80 | 1015.6 |
| 20260901201556 | 85 | 81 | 2.0 | 8.0 | 0.00 | 0.00 | 0.00 | 80 | 1015.9 |
| 20260901194600 | 86 | 47 | 2.0 | 8.0 | 0.00 | 0.00 | 0.00 | 79 | 1016.1 |
| 20260901193102 | 86 | 77 | 2.0 | 8.0 | 0.00 | 0.00 | 0.00 | 79 | 1016.0 |
| 20260901191614 | 87 | 36 | 2.0 | 9.0 | 0.00 | 0.00 | 0.00 | 77 | 1015.9 |
| 20260901190054 | 88 | 50 | 2.0 | 7.0 | 0.00 | 0.00 | 0.00 | 75 | 1015.9 |
| 20260901184601 | 87 | 85 | 2.0 | 8.0 | 0.00 | 0.00 | 0.00 | 76 | 1016.0 |
| 20260901183058 | 89 | 74 | 2.0 | 8.0 | 0.00 | 0.00 | 0.00 | 75 | 1016.3 |
| 20260901181558 | 89 | 107 | 1.0 | 7.0 | 0.00 | 0.00 | 0.00 | 76 | 1016.3 |
| 20260901174603 | 87 | 106 | 2.0 | 10.0 | 0.00 | 0.00 | 0.00 | 80 | 1016.8 |
| 20260901173059 | 88 | 88 | 2.0 | 6.0 | 0.00 | 0.00 | 0.00 | 80 | 1016.8 |
| 20260901171606 | 86 | 53 | 2.0 | 8.0 | 0.00 | 0.00 | 0.00 | 81 | 1017.0 |
| 20260901164600 | 87 | 33 | 2.0 | 9.0 | 0.00 | 0.00 | 0.00 | 78 | 1017.1 |
| 20260901163108 | 89 | 15 | 1.0 | 6.0 | 0.00 | 0.00 | 0.00 | 77 | 1017.2 |
| 20260901161601 | 88 | 54 | 1.0 | 8.0 | 0.00 | 0.00 | 0.00 | 78 | 1017.2 |
| 20260901160056 | 87 | 104 | 3.0 | 10.0 | 0.00 | 0.00 | 0.00 | 79 | 1017.3 |
| 20260901154559 | 88 | 61 | 2.0 | 7.0 | 0.00 | 0.00 | 0.00 | 79 | 1017.3 |
| 20260901153106 | 88 | 138 | 2.0 | 6.0 | 0.00 | 0.00 | 0.00 | 80 | 1017.4 |
| 20260901151557 | 88 | 0 | 2.0 | 7.0 | 0.00 | 0.00 | 0.00 | 79 | 1017.5 |
| 20260901150107 | 87 | 257 | 1.0 | 6.0 | 0.00 | 0.00 | 0.00 | 79 | 1017.2 |
| 20260901144600 | 86 | 303 | 1.0 | 4.0 | 0.00 | 0.00 | 0.00 | 81 | 1017.0 |
| 20260901143057 | 85 | 101 | 1.0 | 5.0 | 0.00 | 0.00 | 0.00 | 83 | 1017.0 |
| 20260901141602 | 86 | 349 | 1.0 | 3.0 | 0.00 | 0.00 | 0.00 | 82 | 1017.0 |
| 20260901134615 | 85 | 103 | 1.0 | 4.0 | 0.00 | 0.00 | 0.00 | 85 | 1017.0 |
| 20260901133104 | 84 | 0 | 0.0 | 5.0 | 0.00 | 0.00 | 0.00 | 89 | 1016.9 |
| 20260901131605 | 82 | 0 | 1.0 | 3.0 | 0.00 | 0.00 | 0.00 | 93 | 1017.1 |
| 20260901130104 | 81 | 77 | 0.0 | 6.0 | 0.00 | 0.00 | 0.00 | 97 | 1017.2 |
| 20260901124558 | 80 | 59 | 0.0 | 4.0 | 0.00 | 0.00 | 0.00 | 99 | 1017.0 |
| 20260901123103 | 80 | 0 | 0.0 | 3.0 | 0.00 | 0.00 | 0.00 | 100 | 1016.9 |
| 20260901121602 | 79 | 0 | 1.0 | 3.0 | 0.00 | 0.00 | 0.00 | 100 | 1016.6 |
| 20260901120100 | 78 | 0 | 0.0 | 2.0 | 0.00 | 0.00 | 0.00 | 100 | 1016.5 |
| 20260901114557 | 78 | 0 | 0.0 | 1.0 | 0.00 | 0.00 | 0.00 | 100 | 1016.3 |
| 20260901113123 | 78 | 0 | 0.0 | 1.0 | 0.00 | 0.00 | 0.00 | 100 | 1016.2 |
| 20260901111603 | 78 | 0 | 0.0 | 0.0 | 0.00 | 0.00 | 0.00 | 99 | 1016.0 |
| 20260901110108 | 78 | 0 | 0.0 | 0.0 | 0.00 | 0.00 | 0.00 | 99 | 1015.9 |
| 20260901104606 | 78 | 0 | 0.0 | 0.0 | 0.00 | 0.00 | 0.00 | 99 | 1015.8 |
| 20260901103101 | 78 | 0 | 0.0 | 1.0 | 0.00 | 0.00 | 0.00 | 99 | 1015.7 |
| 20260901101604 | 77 | 0 | 0.0 | 0.0 | 0.00 | 0.00 | 0.00 | 99 | 1015.6 |
| 20260901100057 | 78 | 0 | 0.0 | 1.0 | 0.00 | 0.00 | 0.00 | 99 | 1015.7 |
| 20260901094600 | 78 | 0 | 0.0 | 0.0 | 0.00 | 0.00 | 0.00 | 99 | 1015.6 |
| 20260901093107 | 78 | 0 | 0.0 | 0.0 | 0.00 | 0.00 | 0.00 | 99 | 1015.6 |
| 20260901091609 | 78 | 0 | 0.0 | 0.0 | 0.00 | 0.00 | 0.00 | 99 | 1015.3 |
| 20260901090057 | 77 | 0 | 0.0 | 0.0 | 0.00 | 0.00 | 0.00 | 99 | 1015.4 |
| 20260901084600 | 77 | 0 | 0.0 | 0.0 | 0.00 | 0.00 | 0.00 | 99 | 1015.3 |
| 20260901083101 | 77 | 0 | 0.0 | 0.0 | 0.00 | 0.00 | 0.00 | 99 | 1015.5 |
| 20260901081559 | 77 | 0 | 0.0 | 0.0 | 0.00 | 0.00 | 0.00 | 99 | 1015.3 |
| 20260901074601 | 77 | 0 | 0.0 | 0.0 | 0.00 | 0.00 | 0.00 | 98 | 1015.4 |
| 20260901073101 | 77 | 0 | 0.0 | 0.0 | 0.00 | 0.00 | 0.00 | 98 | 1015.6 |
| 20260901071602 | 77 | 0 | 0.0 | 0.0 | 0.00 | 0.00 | 0.00 | 98 | 1015.8 |
| 20260901070108 | 78 | 0 | 0.0 | 0.0 | 0.00 | 0.00 | 0.00 | 98 | 1015.9 |
| 20260901064601 | 78 | 0 | 0.0 | 0.0 | 0.00 | 0.00 | 0.00 | 98 | 1015.9 |
| 20260901063102 | 78 | 0 | 0.0 | 0.0 | 0.00 | 0.00 | 0.00 | 98 | 1016.0 |
| 20260901061559 | 78 | 0 | 0.0 | 0.0 | 0.00 | 0.00 | 0.00 | 98 | 1016.1 |
| 20260901054559 | 78 | 0 | 0.0 | 0.0 | 0.00 | 0.00 | 0.00 | 97 | 1016.3 |
| 20260901053100 | 78 | 0 | 0.0 | 0.0 | 0.00 | 0.00 | 0.00 | 97 | 1016.4 |
| 20260901051609 | 78 | 0 | 0.0 | 0.0 | 0.00 | 0.00 | 0.00 | 97 | 1016.7 |
| 20260901050101 | 78 | 0 | 0.0 | 0.0 | 0.00 | 0.00 | 0.00 | 97 | 1016.7 |
| 20260901044558 | 78 | 0 | 0.0 | 0.0 | 0.00 | 0.00 | 0.00 | 97 | 1016.4 |
| 20260901043107 | 78 | 0 | 0.0 | 0.0 | 0.00 | 0.00 | 0.00 | 96 | 1016.7 |
| 20260901041620 | 78 | 0 | 0.0 | 0.0 | 0.00 | 0.00 | 0.00 | 96 | 1016.7 |
| 20260901040110 | 79 | 0 | 0.0 | 0.0 | 0.00 | 0.00 | 0.00 | 96 | 1016.9 |
| 20260901034607 | 79 | 0 | 0.0 | 0.0 | 0.00 | 0.00 | 0.00 | 96 | 1017.0 |
| 20260901033104 | 79 | 0 | 0.0 | 0.0 | 0.00 | 0.00 | 0.00 | 95 | 1017.1 |
| 20260901031558 | 79 | 0 | 0.0 | 0.0 | 0.00 | 0.00 | 0.00 | 95 | 1017.1 |
| 20260901030059 | 79 | 0 | 0.0 | 1.0 | 0.00 | 0.00 | 0.00 | 95 | 1017.3 |
| 20260901024557 | 79 | 0 | 0.0 | 0.0 | 0.00 | 0.00 | 0.00 | 95 | 1017.4 |
| 20260901023101 | 80 | 0 | 0.0 | 0.0 | 0.00 | 0.00 | 0.00 | 94 | 1017.4 |
| 20260901021602 | 80 | 0 | 0.0 | 0.0 | 0.00 | 0.00 | 0.00 | 94 | 1017.4 |
| 20260901020105 | 80 | 0 | 0.0 | 2.0 | 0.00 | 0.00 | 0.00 | 94 | 1017.2 |
| 20260901014600 | 80 | 0 | 0.0 | 3.0 | 0.00 | 0.00 | 0.00 | 94 | 1016.9 |
| 20260901013106 | 80 | 0 | 0.0 | 2.0 | 0.00 | 0.00 | 0.00 | 94 | 1016.5 |
| 20260901011559 | 80 | 0 | 0.0 | 3.0 | 0.00 | 0.00 | 0.00 | 94 | 1016.4 |
| 20260901010106 | 81 | 0 | 0.0 | 3.0 | 0.00 | 0.00 | 0.00 | 94 | 1016.3 |
| 20260901004600 | 81 | 115 | 2.0 | 4.0 | 0.00 | 0.00 | 0.00 | 93 | 1016.3 |
| 20260901003102 | 81 | 0 | 1.0 | 6.0 | 0.00 | 0.00 | 0.00 | 93 | 1016.4 |
| 20260901001604 | 81 | 65 | 0.0 | 4.0 | 0.00 | 0.00 | 0.00 | 93 | 1016.3 |
| 20260901000104 | 81 | 115 | 1.0 | 4.0 | 0.00 | 0.00 | 0.00 | 92 | 1016.3 |